Location: *
(46.1200°N, 11.2700°E)
Time: 20:26:31
(UTC+00:00)

SL-08 R/B - Pass Details

Date: 02 March 2021
Orbit: 949 x 1019 km, 82.9° (Epoch: 17 April)

Event Time Altitude Azimuth Distance (km) Brightness Sun altitude
Exits shadow 19:46:53 76° 149° (SSE) 1,049 4.4 -28.7°
Maximum altitude 19:47:20 82° 97° (E) 1,034 4.4 -28.8°
Drops below altitude 10° 19:53:51 10° 10° (N) 2,818 7.0 -29.9°
Sets 19:56:24 0° 10° (N) 3,772 7.7 -30.3°
